Owensboro, KY

12:03 AM CDT on March 27, 2017 (GMT -0500)
Owensboro-Daviess County

Weather History for KOWB - November, 2012

Change the Weather History Date:

Saturday, November 3, 2012

  Actual Average Record
Temperature  
Mean Temperature 52 °F -  
Max Temperature 63 °F 60 °F 86 °F (1987)
Min Temperature 41 °F 40 °F 12 °F (1951)
Degree Days  
Heating Degree Days 13    
Growing Degree Days 2 (Base 50)    
Moisture  
Dew Point 35 °F    
Average Humidity 60    
Maximum Humidity 80    
Minimum Humidity 34    
Precipitation  
Precipitation 0.00 in - - ()
Sea Level Pressure  
Sea Level Pressure 30.07 in    
Wind  
Wind Speed 8 mph (ENE)    
Max Wind Speed 16 mph    
Max Gust Speed 21 mph    
Visibility 10 miles    
Events Rain    
Averages and records for this station are not official NWS values.
T = Trace of Precipitation, MM = Missing Value Source: NWS Daily Summary

Daily Weather History Graph

Daily Weather History Graph

Search for Another Location

Airport or City:

Trip Planner

Search our weather history database for the weather conditions in past years. The results will help you decide how hot, cold, wet, or windy it might be!

Date:

Astronomy

Nov. 03, 2012 Rise Set
Actual Time 7:16 AM CDT 5:47 PM CDT
Civil Twilight 6:49 AM CDT 6:14 PM CDT
Nautical Twilight 6:18 AM CDT 6:45 PM CDT
Astronomical Twilight 5:47 AM CDT 7:16 PM CDT
Moon 9:29 PM CDT (11/3) 11:18 AM CDT (11/3)
Length of Visible Light 11h 25m
Length of Day
10h 30m
Waning Gibbous, 80% of the Moon is Illuminated
Nov 3
Waning Gibbous
Nov 6
Last Quarter
Nov 13
New
Nov 20
First Quarter
Nov 28
Full

Hourly Weather History & Observations

Time (CDT) Temp. Windchill Dew Point Humidity Pressure Visibility Wind Dir Wind Speed Gust Speed Precip Events Conditions
12:56 AM 43.0 °F 39.5 °F 36.0 °F 76% 30.08 in 10.0 mi ENE 5.8 mph - N/A   Clear
2:56 AM 43.9 °F 42.3 °F 34.0 °F 68% 30.09 in 10.0 mi East 3.5 mph - N/A   Clear
3:56 AM 43.0 °F 38.2 °F 32.9 °F 68% 30.08 in 10.0 mi East 8.1 mph - 0.00 in Rain Light Rain
4:56 AM 41.9 °F 38.2 °F 32.9 °F 70% 30.09 in 10.0 mi East 5.8 mph - 0.00 in   Scattered Clouds
5:56 AM 43.0 °F 38.2 °F 32.9 °F 68% 30.08 in 10.0 mi ESE 8.1 mph - N/A   Scattered Clouds
6:56 AM 45.0 °F 41.2 °F 32.0 °F 60% 30.11 in 10.0 mi ENE 6.9 mph - N/A   Overcast
7:56 AM 45.0 °F 41.2 °F 32.9 °F 63% 30.11 in 10.0 mi East 6.9 mph - 0.00 in   Overcast
8:56 AM 46.9 °F - 32.9 °F 58% 30.14 in 10.0 mi East 8.1 mph - N/A   Overcast
9:56 AM 46.9 °F - 34.9 °F 63% 30.10 in 10.0 mi ESE 10.4 mph - 0.00 in   Mostly Cloudy
10:56 AM 52.0 °F - 34.9 °F 52% 30.08 in 10.0 mi ESE 11.5 mph - N/A   Scattered Clouds
11:56 AM 57.9 °F - 34.9 °F 42% 30.04 in 10.0 mi ESE 16.1 mph - N/A   Partly Cloudy
12:56 PM 61.0 °F - 34.9 °F 38% 30.01 in 10.0 mi ESE 13.8 mph - N/A   Partly Cloudy
1:56 PM 61.9 °F - 34.0 °F 35% 29.98 in 10.0 mi East 10.4 mph - N/A   Scattered Clouds
2:56 PM 63.0 °F - 34.0 °F 34% 29.97 in 10.0 mi East 9.2 mph - N/A   Mostly Cloudy
3:56 PM 57.9 °F - 37.9 °F 47% 29.99 in 10.0 mi NE 11.5 mph - N/A   Overcast
4:56 PM 54.9 °F - 36.0 °F 49% 30.00 in 10.0 mi NE 11.5 mph 20.7 mph N/A   Overcast
5:56 PM 48.9 °F - 38.8 °F 68% 30.02 in 10.0 mi NNE 11.5 mph 18.4 mph N/A   Overcast
6:56 PM 48.9 °F - 38.8 °F 68% 30.06 in 10.0 mi NNE 9.2 mph 13.8 mph N/A   Overcast
7:56 PM 47.8 °F - 37.9 °F 69% 30.09 in 10.0 mi NNE 11.5 mph - N/A   Overcast
8:56 PM 46.9 °F - 36.9 °F 68% 30.10 in 10.0 mi NE 9.2 mph - N/A   Overcast
9:56 PM 45.9 °F 41.7 °F 37.9 °F 74% 30.11 in 10.0 mi NNE 8.1 mph - N/A   Mostly Cloudy
10:56 PM 43.9 °F 39.9 °F 37.9 °F 80% 30.12 in 10.0 mi NNE 6.9 mph - N/A   Clear